TimeCST,TemperatureF,Dew PointF,Humidity,Sea Level PressureIn,VisibilityMPH,Wind Direction,Wind SpeedMPH,Gust SpeedMPH,PrecipitationIn,Events,Conditions,WindDirDegrees,DateUTC
12:53 AM,35.1,21.9,59,30.02,10.0,Calm,Calm,-,N/A,,Clear,0,2014-02-28 06:53:00
1:53 AM,36.0,24.1,62,30.02,10.0,ENE,3.5,-,N/A,,Scattered Clouds,60,2014-02-28 07:53:00
2:53 AM,36.0,26.1,67,30.03,10.0,Calm,Calm,-,N/A,,Partly Cloudy,0,2014-02-28 08:53:00
3:53 AM,34.0,26.1,73,30.02,10.0,Calm,Calm,-,N/A,,Clear,0,2014-02-28 09:53:00
4:53 AM,32.0,25.0,75,30.02,10.0,Calm,Calm,-,N/A,,Clear,0,2014-02-28 10:53:00
5:53 AM,30.0,24.1,79,30.03,10.0,Calm,Calm,-,N/A,,Clear,0,2014-02-28 11:53:00
6:53 AM,30.9,24.1,76,30.04,10.0,Calm,Calm,-,N/A,,Clear,0,2014-02-28 12:53:00
7:53 AM,37.9,25.0,60,30.04,10.0,SE,3.5,-,N/A,,Clear,140,2014-02-28 13:53:00
8:53 AM,45.0,27.0,49,30.04,10.0,South,10.4,-,N/A,,Clear,170,2014-02-28 14:53:00
9:53 AM,50.0,26.1,39,30.05,10.0,South,10.4,-,N/A,,Clear,180,2014-02-28 15:53:00
10:53 AM,51.1,26.1,38,30.04,10.0,South,9.2,20.7,N/A,,Overcast,170,2014-02-28 16:53:00
11:53 AM,53.1,27.0,37,30.01,10.0,SSE,9.2,-,0.00,,Overcast,160,2014-02-28 17:53:00
12:53 PM,53.1,30.9,43,29.97,10.0,SSE,9.2,16.1,0.00,,Overcast,160,2014-02-28 18:53:00
1:12 PM,53.6,33.8,47,29.96,10.0,South,10.4,18.4,0.00,Rain,Light Rain,180,2014-02-28 19:12:00
1:53 PM,55.0,36.0,49,29.92,10.0,SSE,10.4,17.3,0.00,,Overcast,150,2014-02-28 19:53:00
2:38 PM,53.6,39.2,58,29.91,10.0,SSE,15.0,21.9,N/A,,Overcast,160,2014-02-28 20:38:00
2:53 PM,55.0,39.9,57,29.92,10.0,SSE,16.1,24.2,N/A,,Overcast,160,2014-02-28 20:53:00
3:53 PM,55.9,41.0,57,29.91,10.0,Variable,6.9,-,N/A,,Overcast,0,2014-02-28 21:53:00
4:53 PM,55.9,41.0,57,29.92,10.0,South,3.5,-,N/A,,Overcast,180,2014-02-28 22:53:00
5:53 PM,55.9,42.1,60,29.92,10.0,South,8.1,-,N/A,,Overcast,170,2014-02-28 23:53:00
6:28 PM,55.4,42.8,63,29.93,10.0,SSE,5.8,-,N/A,,Overcast,160,2014-03-01 00:28:00
6:53 PM,55.9,43.0,62,29.94,10.0,South,5.8,-,N/A,,Overcast,170,2014-03-01 00:53:00
7:53 PM,57.0,46.9,69,29.94,10.0,South,10.4,-,N/A,,Overcast,170,2014-03-01 01:53:00
8:53 PM,55.9,48.0,75,29.97,10.0,South,5.8,-,N/A,,Overcast,170,2014-03-01 02:53:00
9:53 PM,55.9,48.0,75,29.98,10.0,SSE,5.8,-,N/A,,Overcast,160,2014-03-01 03:53:00
10:53 PM,55.9,48.9,77,29.99,10.0,South,3.5,-,N/A,,Overcast,170,2014-03-01 04:53:00
11:53 PM,55.9,48.9,77,30.00,10.0,Calm,Calm,-,N/A,,Overcast,0,2014-03-01 05:53:00